YD1OCG-15 Weather Reports


time (UTC)temp
F
wind
direction
speed
knots
gust
knots
rain 1hr
in
rain 24hr
in
rain mn
in
humidity
%
barometer
mb
20260504221754 80 147 2.6 0.0 0.00 0.00 0.00 96 1011.0
20260504214754 80 147 2.6 0.0 0.00 0.00 0.00 96 1011.0
20260504211756 78 117 0.9 0.0 0.00 0.00 0.00 96 1011.0
20260504204754 79 117 0.9 0.0 0.00 0.00 0.00 97 1011.0
20260504201754 79 156 1.7 0.0 0.00 0.00 0.00 99 1011.0
20260504194756 80 156 1.7 0.0 0.00 0.00 0.00 96 1011.0
20260504191754 79 157 2.6 0.0 0.00 0.00 0.00 97 1011.0
20260504184755 80 157 2.6 0.0 0.00 0.00 0.00 92 1011.0
20260504181755 80 110 4.3 0.0 0.00 0.00 0.00 92 1011.0
20260504174755 80 149 5.2 0.0 0.00 0.00 0.00 94 1011.0
20260504171804 79 143 5.2 0.0 0.00 0.00 0.00 92 1012.0
20260504081754 82 335 7.8 0.0 0.00 0.00 0.00 85 1009.0
20260504044754 85 342 7.8 0.0 0.00 0.00 0.00 74 1011.0
20260504041753 85 347 5.2 0.0 0.00 0.00 0.00 87 1012.0
20260504034754 85 347 5.2 0.0 0.00 0.00 0.00 78 1012.0
20260504031755 85 2 4.3 0.0 0.00 0.00 0.00 88 1013.0
20260504024754 85 2 4.3 0.0 0.00 0.00 0.00 79 1013.0
20260504021754 85 23 2.6 0.0 0.00 0.00 0.00 91 1013.0
20260504014754 86 23 2.6 0.0 0.00 0.00 0.00 81 1013.0
20260504011754 84 111 2.6 0.0 0.00 0.00 0.00 92 1013.0
20260504004755 86 111 2.6 0.0 0.00 0.00 0.00 85 1013.0
20260504001759 83 124 4.3 0.0 0.00 0.00 0.00 90 1013.0
20260503234754 83 133 3.5 0.0 0.00 0.00 0.00 91 1013.0
20260503231753 81 145 5.2 0.0 0.00 0.00 0.00 91 1012.0
20260503224754 82 145 5.2 0.0 0.00 0.00 0.00 91 1012.0